User: anonymous   Login
Location: Space Photons Observatory
(33.2428°N, 111.5467°W)
Time: 03:02:37
(UTC-07:00)
Language:

RESURS DK-1 - Orbit

View from above orbital plane
View from above orbital plane
View from above satellite
View from above satellite

Ground track
Ground track

The orbit data is extracted from the following two-line orbital elements,

1 29228U 06021A   16274.12927680  .00000504  00000-0  45773-4 0  9996
2 29228  69.9366  39.6433 0004722 341.0275  19.0709 15.01996726569056
Epoch (UTC): 30 September 2016 03:06:09
Eccentricity: 0.0004722
inclination: 69.9366°
perigee height: 557 km
apogee height: 564 km
right ascension of ascending node: 39.6433°
argument of perigee: 341.0275°
revolutions per day: 15.01996726
mean anomaly at epoch: 19.0709°
orbit number at epoch: 56905

The dashed part of the orbit path shows where the satellite is in the earth's shadow,  

DLR